When you browse on this site, cookies collect data to enhance your experience and personalize the content and advertising you see.
Visit our Privacy Policy to learn more. By continuing to use the site, you agree to this use of cookies and data.
  • In Hungary
  • List of Countries
  • For 7 days
  • Water Temperature
  • Weather Map
  • News
  • Weather Widgets
  • user-avatar
    Login

    Hourly Weather Zinacantan

    Today, 18 November, Monday

    Time Temperature Precipitation Wind Pressure Humidity
    00:00 +8°C° 0 mm 1 mps 570 mmHg 91%
    01:00 +8°C° 0 mm 1 mps 570 mmHg 90%
    02:00 +8°C° 0 mm 1 mps 570 mmHg 89%
    03:00 +7°C° 0 mm 1 mps 569 mmHg 89%
    04:00 +7°C° 0 mm 1 mps 569 mmHg 87%
    05:00 +7°C° 0 mm 1 mps 570 mmHg 86%
    06:00 +7°C° 0 mm 1 mps 570 mmHg 85%
    07:00 +8°C° 0 mm 1 mps 571 mmHg 80%
    08:00 +10°C° 0 mm 1 mps 572 mmHg 75%
    09:00 +12°C° 0 mm 1 mps 573 mmHg 70%
    10:00 +13°C° 0 mm 1 mps 573 mmHg 67%
    11:00 +14°C° 0 mm 1 mps 574 mmHg 64%
    12:00 +16°C° 0 mm 1 mps 574 mmHg 61%
    13:00 +15°C° 0 mm 1 mps 573 mmHg 62%
    14:00 +15°C° 0 mm 2 mps 573 mmHg 64%
    15:00 +15°C° 0 mm 2 mps 572 mmHg 65%
    16:00 +13°C° 0 mm 1 mps 571 mmHg 75%
    17:00 +11°C° 0 mm 1 mps 570 mmHg 84%
    18:00 +9°C° 0 mm 1 mps 570 mmHg 93%
    19:00 +8°C° 0 mm 1 mps 570 mmHg 90%
    20:00 +8°C° 0 mm 1 mps 570 mmHg 87%
    21:00 +8°C° 0 mm 1 mps 570 mmHg 83%
    22:00 +8°C° 0 mm 1 mps 570 mmHg 81%
    23:00 +8°C° 0 mm 1 mps 570 mmHg 78%

    Tomorrow, 19 November, Tuesday

    Time Temperature Precipitation Wind Pressure Humidity
    00:00 +6°C° 0 mm 0 mps 570 mmHg 76%
    01:00 +6°C° 0 mm 0 mps 570 mmHg 75%
    02:00 +6°C° 0 mm 0 mps 569 mmHg 74%
    03:00 +6°C° 0 mm 0 mps 569 mmHg 74%
    04:00 +6°C° 0 mm 0 mps 569 mmHg 73%
    05:00 +6°C° 0 mm 0 mps 569 mmHg 73%
    06:00 +5°C° 0 mm 0 mps 570 mmHg 72%
    07:00 +8°C° 0 mm 0 mps 571 mmHg 68%
    08:00 +11°C° 0 mm 1 mps 572 mmHg 64%
    09:00 +13°C° 0 mm 1 mps 574 mmHg 60%
    10:00 +14°C° 0 mm 1 mps 574 mmHg 58%
    11:00 +16°C° 0 mm 1 mps 574 mmHg 56%
    12:00 +18°C° 0 mm 1 mps 575 mmHg 53%
    13:00 +16°C° 0 mm 1 mps 574 mmHg 56%
    14:00 +16°C° 0 mm 1 mps 574 mmHg 59%
    15:00 +16°C° 0 mm 1 mps 573 mmHg 61%
    16:00 +14°C° 0 mm 1 mps 572 mmHg 72%
    17:00 +12°C° 0 mm 1 mps 571 mmHg 83%
    18:00 +10°C° 0 mm 1 mps 571 mmHg 94%
    19:00 +9°C° 0 mm 1 mps 571 mmHg 92%
    20:00 +9°C° 0 mm 1 mps 571 mmHg 91%
    21:00 +9°C° 0 mm 1 mps 571 mmHg 90%
    22:00 +8°C° 0 mm 1 mps 571 mmHg 90%
    23:00 +8°C° 0 mm 1 mps 571 mmHg 91%

    Day after tomorrow, 20 November, Wednesday

    Time Temperature Precipitation Wind Pressure Humidity
    00:00 +8°C° 0 mm 1 mps 571 mmHg 91%
    01:00 +8°C° 0 mm 1 mps 570 mmHg 92%
    02:00 +7°C° 0 mm 0 mps 570 mmHg 93%
    03:00 +6°C° 0 mm 0 mps 570 mmHg 94%
    04:00 +6°C° 0 mm 0 mps 570 mmHg 93%
    05:00 +6°C° 0 mm 0 mps 570 mmHg 91%
    06:00 +7°C° 0 mm 1 mps 570 mmHg 90%
    07:00 +10°C° 0 mm 1 mps 571 mmHg 82%
    08:00 +12°C° 0 mm 1 mps 573 mmHg 74%
    09:00 +14°C° 0 mm 1 mps 575 mmHg 67%
    10:00 +15°C° 0 mm 1 mps 575 mmHg 65%
    11:00 +16°C° 0 mm 1 mps 575 mmHg 62%
    12:00 +19°C° 0 mm 1 mps 575 mmHg 60%
    13:00 +18°C° 0 mm 1 mps 574 mmHg 63%
    14:00 +18°C° 0 mm 1 mps 574 mmHg 65%
    15:00 +18°C° 0 mm 1 mps 573 mmHg 68%
    16:00 +15°C° 0.1 mm 1 mps 572 mmHg 76%
    17:00 +12°C° 0.1 mm 0 mps 571 mmHg 84%
    18:00 +10°C° 0.1 mm 0 mps 571 mmHg 92%
    19:00 +10°C° 0 mm 0 mps 571 mmHg 92%
    20:00 +9°C° 0 mm 0 mps 571 mmHg 93%
    21:00 +10°C° 0 mm 1 mps 572 mmHg 93%
    22:00 +10°C° 0 mm 1 mps 571 mmHg 93%
    23:00 +10°C° 0 mm 1 mps 571 mmHg 93%

    21 November, Thursday

    Time Temperature Precipitation Wind Pressure Humidity
    00:00 +9°C° 0 mm 1 mps 571 mmHg 93%
    01:00 +9°C° 0 mm 1 mps 571 mmHg 92%
    02:00 +9°C° 0 mm 1 mps 570 mmHg 92%
    03:00 +9°C° 0 mm 1 mps 570 mmHg 92%
    04:00 +9°C° 0 mm 1 mps 570 mmHg 91%
    05:00 +8°C° 0 mm 1 mps 570 mmHg 90%
    06:00 +8°C° 0 mm 1 mps 570 mmHg 89%
    07:00 +11°C° 0 mm 1 mps 572 mmHg 82%
    08:00 +13°C° 0 mm 1 mps 573 mmHg 76%
    09:00 +14°C° 0 mm 0 mps 574 mmHg 69%
    10:00 +16°C° 0 mm 1 mps 574 mmHg 66%
    11:00 +19°C° 0 mm 1 mps 575 mmHg 63%
    12:00 +20°C° 0 mm 1 mps 575 mmHg 60%
    13:00 +19°C° 0.1 mm 1 mps 574 mmHg 64%
    14:00 +19°C° 0.1 mm 1 mps 573 mmHg 67%
    15:00 +18°C° 0.1 mm 1 mps 573 mmHg 70%
    16:00 +15°C° 0.2 mm 0 mps 572 mmHg 77%
    17:00 +13°C° 0.2 mm 0 mps 571 mmHg 84%
    18:00 +11°C° 0.2 mm 0 mps 571 mmHg 91%
    19:00 +11°C° 0 mm 0 mps 571 mmHg 92%
    20:00 +11°C° 0 mm 0 mps 571 mmHg 92%
    21:00 +10°C° 0 mm 0 mps 572 mmHg 92%
    22:00 +10°C° 0 mm 0 mps 571 mmHg 92%
    23:00 +11°C° 0 mm 1 mps 571 mmHg 92%

    22 November, Friday

    Time Temperature Precipitation Wind Pressure Humidity
    00:00 +11°C° 0 mm 1 mps 571 mmHg 93%
    01:00 +10°C° 0 mm 1 mps 571 mmHg 93%
    02:00 +10°C° 0 mm 1 mps 570 mmHg 93%
    03:00 +10°C° 0 mm 1 mps 570 mmHg 93%
    04:00 +10°C° 0 mm 1 mps 570 mmHg 93%
    05:00 +10°C° 0 mm 1 mps 570 mmHg 92%
    06:00 +9°C° 0 mm 1 mps 570 mmHg 92%
    07:00 +11°C° 0 mm 1 mps 571 mmHg 86%
    08:00 +13°C° 0 mm 1 mps 573 mmHg 79%
    09:00 +14°C° 0 mm 0 mps 574 mmHg 73%
    10:00 +18°C° 0 mm 1 mps 574 mmHg 69%
    11:00 +19°C° 0 mm 1 mps 575 mmHg 65%
    12:00 +20°C° 0 mm 1 mps 575 mmHg 61%
    13:00 +20°C° 0.3 mm 1 mps 574 mmHg 66%
    14:00 +19°C° 0.3 mm 1 mps 573 mmHg 71%
    15:00 +16°C° 0.3 mm 0 mps 572 mmHg 76%
    16:00 +15°C° 0.5 mm 0 mps 572 mmHg 81%
    17:00 +13°C° 0.5 mm 0 mps 571 mmHg 85%
    18:00 +11°C° 0.5 mm 0 mps 571 mmHg 90%
    19:00 +11°C° 0.1 mm 0 mps 571 mmHg 90%
    20:00 +11°C° 0.1 mm 0 mps 571 mmHg 90%
    21:00 +11°C° 0.1 mm 1 mps 572 mmHg 90%
    22:00 +11°C° 0 mm 1 mps 572 mmHg 90%
    23:00 +10°C° 0 mm 0 mps 571 mmHg 90%

    23 November, Saturday

    Time Temperature Precipitation Wind Pressure Humidity
    00:00 +10°C° 0 mm 0 mps 571 mmHg 90%
    01:00 +9°C° 0 mm 0 mps 571 mmHg 91%
    02:00 +9°C° 0 mm 0 mps 571 mmHg 91%
    03:00 +10°C° 0 mm 1 mps 570 mmHg 92%
    04:00 +10°C° 0 mm 1 mps 571 mmHg 93%
    05:00 +10°C° 0 mm 1 mps 571 mmHg 94%
    06:00 +10°C° 0 mm 1 mps 571 mmHg 95%
    07:00 +11°C° 0 mm 1 mps 572 mmHg 91%
    08:00 +12°C° 0 mm 1 mps 573 mmHg 88%
    09:00 +14°C° 0 mm 1 mps 574 mmHg 84%
    10:00 +15°C° 0 mm 1 mps 575 mmHg 77%
    11:00 +16°C° 0 mm 1 mps 575 mmHg 70%
    12:00 +19°C° 0 mm 1 mps 575 mmHg 64%
    13:00 +18°C° 0.2 mm 1 mps 575 mmHg 65%
    14:00 +17°C° 0.2 mm 2 mps 574 mmHg 67%
    15:00 +17°C° 0.2 mm 2 mps 573 mmHg 69%
    16:00 +15°C° 0.4 mm 2 mps 573 mmHg 78%
    17:00 +13°C° 0.4 mm 2 mps 572 mmHg 86%
    18:00 +10°C° 0.4 mm 2 mps 572 mmHg 94%
    19:00 +10°C° 0 mm 2 mps 572 mmHg 94%
    20:00 +9°C° 0 mm 2 mps 572 mmHg 94%
    21:00 +9°C° 0 mm 2 mps 572 mmHg 94%
    22:00 +10°C° 0 mm 1 mps 572 mmHg 93%
    23:00 +10°C° 0 mm 1 mps 572 mmHg 93%
    Show more